Kenai, AK

4:18 AM AKDT on July 29, 2017 (GMT -0800)
Kenai Municipal

Weather History for PAEN - March, 2012

Change the Weather History Date:

Tuesday, March 20, 2012

  Actual Average Record
Temperature  
Mean Temperature 17 °F -  
Max Temperature 25 °F 34 °F 50 °F (1998)
Min Temperature 8 °F 16 °F -22 °F (1975)
Degree Days  
Heating Degree Days 48    
Moisture  
Dew Point 15 °F    
Average Humidity 88    
Maximum Humidity 100    
Minimum Humidity 71    
Precipitation  
Precipitation 0.02 in - - ()
Sea Level Pressure  
Sea Level Pressure 29.54 in    
Wind  
Wind Speed 1 mph (WNW)    
Max Wind Speed 9 mph    
Max Gust Speed -    
Visibility 5 miles    
Events Snow    
Averages and records for this station are not official NWS values.
T = Trace of Precipitation, MM = Missing Value Source: NWS Daily Summary

Daily Weather History Graph

Daily Weather History Graph

Search for Another Location

Airport or City:

Trip Planner

Search our weather history database for the weather conditions in past years. The results will help you decide how hot, cold, wet, or windy it might be!

Date:

Astronomy

Mar. 20, 2012 Rise Set
Actual Time 8:04 AM AKDT 8:21 PM AKDT
Civil Twilight 7:21 AM AKDT 9:04 PM AKDT
Nautical Twilight 6:30 AM AKDT 9:55 PM AKDT
Astronomical Twilight 5:35 AM AKDT 10:51 PM AKDT
Moon 7:09 AM AKDT (3/20) 6:49 PM AKDT (3/20)
Length of Visible Light 13h 42m
Length of Day
12h 17m
Waning Crescent, 3% of the Moon is Illuminated
Mar 20
Waning Crescent
Mar 22
New
Mar 30
First Quarter
Apr 6
Full
Apr 13
Last Quarter

Hourly Weather History & Observations

Time (AKDT) Temp. Windchill Dew Point Humidity Pressure Visibility Wind Dir Wind Speed Gust Speed Precip Events Conditions
12:45 AM 17.6 °F - 15.8 °F 93% 29.62 in 2.5 mi Calm Calm - 0.00 in Snow Light Snow
12:53 AM 17.1 °F - 16.0 °F 96% 29.63 in 2.5 mi Calm Calm - 0.00 in Snow Light Snow
1:00 AM 17.6 °F - 15.8 °F 93% 29.62 in 2.0 mi Calm Calm - 0.00 in Snow Light Snow
1:08 AM 15.8 °F - 14.0 °F 93% 29.62 in 1.8 mi Calm Calm - 0.00 in Snow Light Snow
1:16 AM 17.6 °F - 14.0 °F 86% 29.61 in 2.0 mi Calm Calm - 0.00 in Snow Light Snow
1:28 AM 17.6 °F - 15.8 °F 93% 29.61 in 4.0 mi Calm Calm - 0.00 in Snow Light Snow
1:53 AM 17.1 °F - 15.1 °F 92% 29.62 in 7.0 mi Calm Calm - 0.00 in   Overcast
2:18 AM 19.4 °F - 17.6 °F 93% 29.60 in 5.0 mi Calm Calm - 0.00 in Snow Light Snow
2:33 AM 19.4 °F - 17.6 °F 93% 29.60 in 6.0 mi Calm Calm - 0.00 in   Overcast
2:53 AM 18.0 °F - 16.0 °F 92% 29.61 in 3.0 mi Calm Calm - 0.00 in Snow Light Snow
3:12 AM 19.4 °F - 17.6 °F 93% 29.60 in 2.5 mi Calm Calm - 0.00 in Snow Light Snow
3:27 AM 17.6 °F - 15.8 °F 93% 29.60 in 4.0 mi Calm Calm - 0.00 in Snow Light Snow
3:53 AM 17.1 °F - 15.1 °F 92% 29.60 in 4.0 mi Calm Calm - 0.00 in Snow Light Snow
4:45 AM 17.6 °F - 15.8 °F 93% 29.58 in 2.5 mi Calm Calm - 0.00 in Snow Light Snow
4:53 AM 19.0 °F - 17.1 °F 92% 29.60 in 2.5 mi Calm Calm - 0.00 in Snow Light Snow
5:25 AM 19.4 °F - 17.6 °F 93% 29.57 in 5.0 mi Calm Calm - 0.01 in Snow Light Snow
5:53 AM 17.1 °F - 16.0 °F 96% 29.58 in 2.5 mi Calm Calm - 0.01 in Snow Light Snow
6:01 AM 17.6 °F - 15.8 °F 93% 29.57 in 3.0 mi Calm Calm - 0.00 in Snow Light Snow
6:40 AM 17.6 °F - 17.6 °F 100% 29.56 in 3.0 mi Calm Calm - 0.00 in Snow Light Snow
6:53 AM 17.1 °F - 16.0 °F 96% 29.57 in 3.0 mi Calm Calm - 0.00 in Snow Light Snow
7:53 AM 16.0 °F - 15.1 °F 96% 29.56 in 7.0 mi Calm Calm - 0.00 in   Overcast
8:53 AM 14.0 °F - 12.0 °F 92% 29.55 in 6.0 mi Calm Calm - 0.00 in Snow Light Snow
9:16 AM 14.0 °F - 12.2 °F 93% 29.54 in 2.5 mi Calm Calm - 0.00 in Snow Light Snow
9:26 AM 15.8 °F - 15.8 °F 100% 29.53 in 1.2 mi Calm Calm - 0.00 in Snow Light Snow
9:41 AM 15.8 °F - 15.8 °F 100% 29.53 in 3.0 mi Calm Calm - 0.00 in Snow Light Snow
9:53 AM 17.1 °F - 16.0 °F 96% 29.54 in 3.0 mi Calm Calm - 0.00 in Snow Light Snow
10:00 AM 17.6 °F - 17.6 °F 100% 29.53 in 2.0 mi Calm Calm - 0.00 in Snow Light Snow
10:49 AM 19.4 °F - 17.6 °F 93% 29.52 in 3.0 mi Calm Calm - 0.01 in Snow Light Snow
10:53 AM 19.9 °F 14.9 °F 17.1 °F 89% 29.54 in 3.0 mi NW 3.5 mph - 0.01 in Snow Light Snow
11:26 AM 21.2 °F 13.6 °F 17.6 °F 86% 29.51 in 1.2 mi NW 5.8 mph - 0.00 in Snow Light Snow
11:48 AM 21.2 °F 13.6 °F 17.6 °F 86% 29.51 in 2.0 mi NW 5.8 mph - 0.00 in Snow Light Snow
11:53 AM 21.0 °F 14.6 °F 18.0 °F 88% 29.52 in 2.5 mi NW 4.6 mph - 0.00 in Snow Light Snow
12:10 PM 21.2 °F 14.9 °F 17.6 °F 86% 29.51 in 1.8 mi NW 4.6 mph - 0.00 in Snow Light Snow
12:22 PM 21.2 °F 16.4 °F 17.6 °F 86% 29.51 in 2.5 mi NW 3.5 mph - 0.00 in Snow Light Snow
12:30 PM 21.2 °F 14.9 °F 17.6 °F 86% 29.51 in 3.0 mi NW 4.6 mph - 0.00 in Snow Light Snow
12:38 PM 21.2 °F 14.9 °F 17.6 °F 86% 29.51 in 3.0 mi NNW 4.6 mph - 0.00 in Snow Light Snow
12:53 PM 21.9 °F 17.2 °F 17.1 °F 82% 29.52 in 7.0 mi NW 3.5 mph - 0.00 in Snow Light Snow
1:27 PM 23.0 °F - 17.6 °F 80% 29.50 in 10.0 mi Calm Calm - 0.00 in   Mostly Cloudy
1:33 PM 24.8 °F 20.5 °F 17.6 °F 74% 29.50 in 10.0 mi NW 3.5 mph - 0.00 in   Scattered Clouds
1:53 PM 25.0 °F - 18.0 °F 75% 29.51 in 10.0 mi Calm Calm - 0.00 in   Mostly Cloudy
2:05 PM 24.8 °F - 17.6 °F 74% 29.50 in 10.0 mi Calm Calm - N/A   Scattered Clouds
2:53 PM 23.0 °F 15.8 °F 18.0 °F 81% 29.50 in 10.0 mi West 5.8 mph - N/A   Scattered Clouds
3:00 PM 24.8 °F 16.9 °F 17.6 °F 74% 29.48 in 10.0 mi Variable 6.9 mph - N/A   Overcast
3:53 PM 23.0 °F 14.7 °F 16.0 °F 74% 29.49 in 10.0 mi WSW 6.9 mph - N/A   Mostly Cloudy
4:20 PM 23.0 °F 15.8 °F 15.8 °F 74% 29.48 in 10.0 mi West 5.8 mph - N/A   Scattered Clouds
4:53 PM 23.0 °F 13.9 °F 15.1 °F 72% 29.48 in 10.0 mi West 8.1 mph - N/A   Partly Cloudy
5:53 PM 23.0 °F 14.7 °F 15.1 °F 72% 29.48 in 10.0 mi WNW 6.9 mph - N/A   Clear
6:53 PM 21.9 °F 11.7 °F 14.0 °F 72% 29.48 in 10.0 mi WNW 9.2 mph - N/A   Clear
7:53 PM 18.0 °F 9.8 °F 10.0 °F 71% 29.49 in 10.0 mi NW 5.8 mph - N/A   Clear
8:53 PM 14.0 °F 6.5 °F 7.0 °F 74% 29.49 in 10.0 mi WNW 4.6 mph - N/A   Clear
9:53 PM 9.0 °F 0.6 °F 7.0 °F 92% 29.50 in 10.0 mi NW 4.6 mph - N/A   Clear
10:53 PM 9.0 °F 2.4 °F 7.0 °F 92% 29.51 in 10.0 mi WNW 3.5 mph - N/A   Clear
11:53 PM 8.1 °F 1.4 °F 6.1 °F 92% 29.52 in 10.0 mi WNW 3.5 mph - N/A   Clear